Waarnemingen

Advertentie
Mijn weer
Leucate/Semaphore, Frankrijk (7666): temperatuur & dauwpunt: 21.06.2017 02:00:00 - 27.06.2017 02:00:00 (CEST)Leucate/Semaphore, Frankrijk (7666): windsnelheid & windstoten: 21.06.2017 02:00:00 - 27.06.2017 02:00:00 (CEST)Leucate/Semaphore, Frankrijk (7666): windrichting: 21.06.2017 02:00:00 - 27.06.2017 02:00:00 (CEST)Leucate/Semaphore, Frankrijk (7666): luchtdruk: 21.06.2017 02:00:00 - 27.06.2017 02:00:00 (CEST)Leucate/Semaphore, Frankrijk (7666): zicht: 21.06.2017 02:00:00 - 27.06.2017 02:00:00 (CEST)Leucate/Semaphore, Frankrijk (7666): neerslag: 21.06.2017 02:00:00 - 27.06.2017 02:00:00 (CEST)
Datum & Tijd tt [°C] td [°C] ff [km/u] ff [kn] fx [km/u] fx [kn] dd ppp [hPa] vv [km] rr [mm]
27.06.2017 02:00:00 21,0 20,0 11 6 17 9 NW 1010,3 - 0,0
27.06.2017 01:00:00 20,9 19,9 7 4 17 9 NW 1010,6 - 0,0
27.06.2017 00:00:00 21,5 20,5 11 6 17 9 NW 1010,8 - 0,0
26.06.2017 23:00:00 21,6 20,6 10 5 15 8 NW 1010,8 - 0,2
26.06.2017 22:00:00 22,0 20,8 10 5 16 8 NNW 1010,3 - 0,0
26.06.2017 21:00:00 22,3 20,9 9 5 15 8 N 1010,0 - 0,0
26.06.2017 20:00:00 22,2 21,0 7 4 21 11 N 1010,2 - 0,0
26.06.2017 19:00:00 22,2 21,2 5 3 16 9 NO 1009,9 - 0,4
26.06.2017 18:00:00 22,3 21,3 6 3 18 10 ONO 1010,2 - 0,2
26.06.2017 17:00:00 22,3 21,1 9 5 29 16 ONO 1010,5 6 0,4
26.06.2017 16:00:00 22,4 20,7 11 6 35 19 NO 1010,7 - 0,6
26.06.2017 15:00:00 23,3 19,0 9 5 36 20 NNO 1010,4 - 0,0
26.06.2017 14:00:00 24,4 19,2 18 10 29 16 N 1010,8 25 0,0
26.06.2017 13:00:00 25,0 18,9 8 5 23 13 ONO 1010,4 - 0,0
26.06.2017 12:00:00 23,2 18,1 16 8 29 16 ONO 1010,4 - 0,0
26.06.2017 11:00:00 24,4 17,1 8 5 16 9 N 1011,5 - 0,0
26.06.2017 10:00:00 24,0 18,0 6 4 27 14 NNO 1011,7 - 0,0
26.06.2017 09:00:00 23,7 17,2 17 9 35 19 N 1011,2 - 0,0
26.06.2017 08:00:00 24,2 18,4 8 4 16 8 NNW 1011,8 - 0,0
26.06.2017 07:00:00 23,1 18,8 11 6 19 10 NNO 1011,2 - 0,0
26.06.2017 06:00:00 21,9 18,7 12 6 19 11 N 1010,8 - 0,0
26.06.2017 05:00:00 23,0 16,8 13 7 19 11 N 1011,1 22 0,0
26.06.2017 04:00:00 23,1 15,9 6 4 10 6 NW 1011,7 - 0,0
26.06.2017 03:00:00 23,5 20,4 4 2 11 6 NNO 1011,7 - 0,0
26.06.2017 02:00:00 23,7 17,4 9 5 15 8 NNW 1012,3 - 0,0
26.06.2017 01:00:00 24,9 19,0 10 5 19 10 Z 1012,7 - 0,0
26.06.2017 00:00:00 26,5 13,6 12 7 26 14 NW 1013,0 - 0,0
25.06.2017 23:00:00 27,4 13,7 16 9 26 14 NW 1013,0 - 0,0
25.06.2017 22:00:00 27,3 13,6 9 5 21 12 WNW 1013,5 - 0,0
25.06.2017 21:00:00 26,6 19,2 9 5 16 9 WZW 1012,9 - 0,0
25.06.2017 20:00:00 25,9 19,1 14 7 35 19 ZZW 1013,1 25 0,0
25.06.2017 19:00:00 24,8 19,8 23 12 31 17 Z 1013,1 - 0,0
25.06.2017 18:00:00 25,3 19,0 23 12 30 16 Z 1013,4 - 0,0
25.06.2017 17:00:00 26,2 18,1 15 8 22 12 Z 1014,2 25 0,0
25.06.2017 16:00:00 31,3 12,1 13 7 32 18 NNW 1014,7 - 0,0
25.06.2017 15:00:00 30,5 12,9 19 10 41 22 NW 1015,4 - 0,0
25.06.2017 14:00:00 29,2 14,6 22 12 44 24 WNW 1016,1 - 0,0
25.06.2017 13:00:00 28,0 14,6 25 13 49 26 NW 1017,0 - 0,0
25.06.2017 12:00:00 27,4 14,8 22 12 49 26 NW 1017,3 - 0,0
25.06.2017 11:00:00 25,9 14,7 28 15 51 28 NW 1017,5 - 0,0
25.06.2017 10:00:00 24,5 14,9 29 16 50 27 NW 1017,5 - 0,0
25.06.2017 09:00:00 23,2 14,7 21 11 39 21 NW 1017,7 - 0,0
25.06.2017 08:00:00 21,8 14,9 19 10 45 24 NW 1017,5 - 0,0
25.06.2017 07:00:00 21,4 15,0 29 16 48 26 WNW 1016,8 - 0,0
25.06.2017 06:00:00 21,6 14,7 19 10 44 24 NW 1017,1 - 0,0
25.06.2017 05:00:00 22,0 14,6 27 14 56 30 NW 1016,7 20 0,0
25.06.2017 04:00:00 22,2 14,8 27 15 57 31 NW 1017,5 - 0,0
25.06.2017 03:00:00 22,6 14,4 27 14 64 35 NW 1017,6 - 0,0
25.06.2017 02:00:00 22,9 14,2 34 19 74 40 NW 1016,7 - 0,0
25.06.2017 01:00:00 23,1 14,6 24 13 63 34 NW 1017,0 - 0,0
25.06.2017 00:00:00 23,6 14,6 26 14 64 35 NW 1017,2 - 0,0
24.06.2017 23:00:00 24,2 14,9 24 13 63 34 NW 1017,0 - 0,0
24.06.2017 22:00:00 24,8 15,4 33 18 67 36 NW 1016,2 - 0,0
24.06.2017 21:00:00 25,8 15,8 32 17 61 33 NW 1015,4 - 0,0
24.06.2017 20:00:00 27,3 16,3 29 16 56 30 WNW 1015,2 - 0,0
24.06.2017 19:00:00 29,0 16,9 30 16 57 31 WNW 1014,8 - 0,0
24.06.2017 18:00:00 29,6 18,7 16 9 41 22 W 1015,0 - 0,0
24.06.2017 17:00:00 25,1 21,2 19 10 31 17 Z 1015,6 20 0,0
24.06.2017 16:00:00 25,8 20,4 22 12 31 17 Z 1015,9 - 0,0
24.06.2017 15:00:00 27,6 20,9 18 10 39 21 Z 1016,1 - 0,0
24.06.2017 14:00:00 31,9 18,1 20 11 42 23 NW 1016,4 20 0,0
24.06.2017 13:00:00 31,4 17,7 21 11 38 20 NNW 1016,8 - 0,0
24.06.2017 12:00:00 30,1 17,2 19 10 40 22 NW 1017,2 - 0,0
24.06.2017 11:00:00 28,5 17,4 23 12 41 22 NW 1017,6 18 0,0
24.06.2017 10:00:00 27,4 17,3 23 13 52 28 NW 1018,1 - 0,0
24.06.2017 09:00:00 25,6 17,3 28 15 50 27 NW 1018,6 - 0,0
24.06.2017 08:00:00 24,3 17,3 27 14 55 30 NW 1018,7 18 0,0
24.06.2017 07:00:00 23,4 17,4 29 15 56 30 NW 1018,4 - 0,0
24.06.2017 06:00:00 23,1 17,6 30 16 58 32 NW 1018,5 - 0,0
24.06.2017 05:00:00 23,1 17,6 29 15 59 32 NW 1018,6 - 0,0
24.06.2017 04:00:00 23,4 17,8 28 15 65 35 NW 1018,6 - 0,0
24.06.2017 03:00:00 23,6 17,8 34 19 67 36 NW 1018,3 - 0,0
24.06.2017 02:00:00 24,1 17,8 35 19 70 38 NW 1018,3 - 0,0
24.06.2017 01:00:00 24,6 17,8 32 18 66 36 NW 1018,4 - 0,0
24.06.2017 00:00:00 24,8 17,8 31 17 58 31 NW 1018,5 - 0,0
23.06.2017 23:00:00 24,9 17,9 27 15 55 30 NW 1018,7 - 0,0
23.06.2017 22:00:00 25,4 18,1 29 15 61 33 NW 1018,0 - 0,0
23.06.2017 21:00:00 26,1 18,2 29 16 54 29 NW 1017,4 - 0,0
23.06.2017 20:00:00 27,4 19,2 10 5 29 16 WNW 1017,8 15 0,0
23.06.2017 19:00:00 25,0 22,5 14 8 25 13 Z 1017,7 - 0,0
23.06.2017 18:00:00 25,7 22,0 17 9 27 15 Z 1017,6 - 0,0
23.06.2017 17:00:00 25,8 21,7 22 12 29 16 Z 1017,7 20 0,0
23.06.2017 16:00:00 26,2 22,1 18 10 26 14 Z 1018,0 - 0,0
23.06.2017 15:00:00 25,9 22,0 20 11 30 16 Z 1018,4 - 0,0
23.06.2017 14:00:00 26,3 21,7 22 12 38 21 Z 1018,5 15 0,0
23.06.2017 13:00:00 32,2 19,1 18 10 39 21 NW 1018,7 - 0,0
23.06.2017 12:00:00 30,5 18,9 21 11 39 21 NW 1019,0 - 0,0
23.06.2017 11:00:00 29,3 19,3 21 12 42 23 NW 1019,2 18 0,0
23.06.2017 10:00:00 27,9 18,9 22 12 42 23 NW 1019,2 - 0,2
23.06.2017 09:00:00 26,4 19,5 16 9 31 17 NW 1019,0 - 0,0
23.06.2017 08:00:00 24,6 19,4 18 10 34 18 NW 1018,4 18 0,0
23.06.2017 07:00:00 23,0 19,4 9 5 16 9 NW 1017,8 - 0,0
23.06.2017 06:00:00 23,3 19,7 4 2 13 7 NNW 1017,6 - 0,0
23.06.2017 05:00:00 24,0 20,5 12 7 36 19 NW 1017,4 18 0,0
23.06.2017 04:00:00 23,5 21,8 23 12 36 19 NNW 1017,1 - 0,0
23.06.2017 03:00:00 23,1 22,3 16 9 30 16 N 1017,5 - 0,0
23.06.2017 02:00:00 23,2 22,4 15 8 24 13 N 1017,4 - 0,0
23.06.2017 01:00:00 23,0 22,2 12 6 18 10 N 1017,4 - 0,0
23.06.2017 00:00:00 23,0 22,0 10 5 17 9 NNO 1017,2 - 0,0
22.06.2017 23:00:00 23,1 21,9 8 4 15 8 N 1016,8 - 0,0
22.06.2017 22:00:00 23,5 22,1 3 1 16 9 Z 1016,6 - 0,0
22.06.2017 21:00:00 23,6 22,0 12 6 21 11 Z 1016,3 - 0,0
22.06.2017 20:00:00 23,7 21,8 18 10 23 12 Z 1016,6 - 0,0
22.06.2017 19:00:00 24,2 21,7 15 8 24 13 ZZO 1016,6 - 0,0
22.06.2017 18:00:00 24,4 21,5 14 8 20 11 ZZO 1017,0 - 0,0
22.06.2017 17:00:00 24,5 21,0 13 7 16 8 ZO 1017,2 - 0,0
22.06.2017 16:00:00 24,8 20,9 6 4 13 7 OZO 1017,5 - 0,0
22.06.2017 15:00:00 25,1 20,8 6 3 13 7 O 1017,6 - 0,0
22.06.2017 14:00:00 25,2 20,9 10 6 18 10 O 1017,9 - 0,0
22.06.2017 13:00:00 25,0 20,7 6 3 19 11 ONO 1018,2 - 0,0
22.06.2017 12:00:00 24,5 21,0 5 3 18 10 NO 1018,3 - 0,0
22.06.2017 11:00:00 23,8 21,3 6 3 13 7 NNO 1018,1 15 0,0
22.06.2017 10:00:00 22,8 20,7 7 4 15 8 NNO 1017,8 - 0,0
22.06.2017 09:00:00 22,6 20,7 4 2 15 8 NNO 1017,5 - 0,0
22.06.2017 08:00:00 22,5 21,0 7 4 14 7 NNO 1017,0 10 0,0
22.06.2017 07:00:00 22,1 20,9 3 1 11 6 N 1016,6 - 0,0
22.06.2017 06:00:00 22,0 21,0 3 2 12 7 WNW 1016,3 - 0,0
22.06.2017 05:00:00 21,9 21,1 6 3 11 6 N 1016,0 - 0,0
22.06.2017 04:00:00 21,7 21,0 4 2 7 4 NNW 1016,3 - 0,0
22.06.2017 03:00:00 21,8 21,0 3 1 11 6 NW 1016,3 - 0,0
22.06.2017 02:00:00 22,1 21,3 5 3 11 6 N 1016,2 - 0,0
22.06.2017 01:00:00 22,1 21,3 7 4 13 7 N 1016,5 - 0,0
22.06.2017 00:00:00 22,4 21,4 6 3 14 8 NNO 1016,3 - 0,0
21.06.2017 23:00:00 22,5 21,5 9 5 14 8 N 1016,2 - 0,0
21.06.2017 22:00:00 22,6 21,2 6 3 14 7 NNO 1015,8 - 0,0
21.06.2017 21:00:00 23,0 21,4 3 2 13 7 NO 1015,2 - 0,0
21.06.2017 20:00:00 23,4 21,3 6 4 15 8 OZO 1015,0 15 0,0
21.06.2017 19:00:00 23,4 21,1 13 7 20 11 ZZO 1014,7 - 0,0
21.06.2017 18:00:00 24,3 21,0 16 9 20 11 ZZO 1014,5 - 0,0
21.06.2017 17:00:00 23,9 20,8 16 8 18 10 ZO 1014,9 - 0,0
21.06.2017 16:00:00 24,2 20,5 14 8 16 9 ZZO 1015,2 - 0,0
21.06.2017 15:00:00 24,3 20,4 13 7 16 8 ZZO 1015,4 - 0,0
21.06.2017 14:00:00 25,7 20,7 12 6 15 8 ZO 1016,2 15 0,0
21.06.2017 13:00:00 25,2 20,7 8 4 13 7 O 1016,5 - 0,0
21.06.2017 12:00:00 24,0 20,3 9 5 16 8 ONO 1016,9 - 0,0
21.06.2017 11:00:00 23,9 20,8 3 2 10 5 ONO 1016,7 15 0,0
21.06.2017 10:00:00 23,2 20,5 3 2 13 7 NO 1016,4 - 0,0
21.06.2017 09:00:00 22,7 20,4 8 5 13 7 NNO 1016,3 - 0,0
21.06.2017 08:00:00 22,5 20,4 3 2 18 10 N 1016,0 10 0,0
21.06.2017 07:00:00 22,5 20,8 7 4 15 8 N 1015,7 - 0,0
21.06.2017 06:00:00 22,6 20,7 8 4 16 9 N 1015,5 - 0,0
21.06.2017 05:00:00 22,4 20,5 5 3 16 9 NNW 1015,5 - 0,0
21.06.2017 04:00:00 22,4 20,7 8 4 21 11 N 1015,7 - 0,0
21.06.2017 03:00:00 22,3 20,8 14 8 24 13 N 1015,9 - 0,0
21.06.2017 02:00:00 22,1 20,9 13 7 21 11 N 1016,2 - 0,0

tt = temperatuur
td = dauwpunt
ff = windsnelheid
fx = windstoten
dd = windrichting
ppp = luchtdruk
vv = zicht
rr = neerslag

Weerstations in de omgeving